User: anonymous   Login
Location: Caltech
(34.1382°N, 118.1253°W)
Time: 00:46:36
(UTC-08:00)
Language:

Cosmos 2333 Rocket - Orbit

View from above orbital plane
View from above orbital plane
View from above satellite
View from above satellite

Ground track
Ground track

The orbit data is extracted from the following two-line orbital elements,

1 24298U 96051B   16043.43972948 -.00000047  00000-0  10096-5 0  9999
2 24298  70.8350  16.5812 0018029 201.3336 158.7035 14.12387350  2523
Epoch (UTC): 12 February 2016 10:33:12
Eccentricity: 0.0018029
inclination: 70.8350°
perigee height: 838 km
apogee height: 864 km
right ascension of ascending node: 16.5812°
argument of perigee: 201.3336°
revolutions per day: 14.12387350
mean anomaly at epoch: 158.7035°
orbit number at epoch: 252

The dashed part of the orbit path shows where the satellite is in the earth's shadow,  

DLR